Location: Beddau
(51.5575°N, 3.3561°W)
Time: 12:46:05
(UTC+00:00)

Cosmos 2333 Rocket - Pass Details

Date: 03 March 2021
Orbit: 837 x 864 km, 70.8° (Epoch: 16 April)

Event Time Altitude Azimuth Distance (km) Brightness Sun altitude
Rises 18:48:46 0° 155° (SSE) 3,391 5.1 -8.8°
Reaches altitude 10° 18:52:05 10° 136° (SE) 2,467 4.2 -9.3°
Maximum altitude 18:55:29 17° 98° (E) 2,050 3.6 -9.8°
Drops below altitude 10° 18:58:56 10° 61° (ENE) 2,489 4.1 -10.3°
Sets 19:02:16 0° 42° (NE) 3,437 5.0 -10.8°
